Volver al catálogo

SL-3 DEB

ActivoPO
NORAD 9664·DEBRIS·🇷🇺 Russia

Lanzado Jan 6, 1977 desde Plesetsk Cosmodrome

Loading…

Próximos Pases (próximas 24 horas)

TLE

ActualizadoSource: Space-Track

Época: Sep 14, 2026, 15:21 UTC

1 09664U 77002D   26257.64026534  .00000110  00000-0  63542-4 0  9999
2 09664  81.2666  37.9001 0009012 168.5993 191.5380 14.02237294541167

Sigue SL-3 DEB en tiempo real con AllMySat

Download on the App Store